Time,TemperatureF,DewpointF,PressureIn,WindDirection,WindDirectionDegrees,WindSpeedMPH,WindSpeedGustMPH,Humidity,HourlyPrecipIn,Conditions,Clouds,dailyrainin,SoftwareType,DateUTC
2013-10-19 00:03:00,66.0,32.8,29.94,NNW,331,0.0,0.0,29,0.00,,,0.00,WeatherCatV1.21B27,2013-10-19 07:03:00,
2013-10-19 00:08:00,66.1,32.9,29.94,NNW,331,0.0,0.0,29,0.00,,,0.00,WeatherCatV1.21B27,2013-10-19 07:08:00,
2013-10-19 00:13:00,66.2,33.0,29.94,NNW,331,0.0,0.0,29,0.00,,,0.00,WeatherCatV1.21B27,2013-10-19 07:13:00,
2013-10-19 00:18:00,66.4,33.2,29.94,NNW,331,0.0,0.0,29,0.00,,,0.00,WeatherCatV1.21B27,2013-10-19 07:18:00,
2013-10-19 00:23:00,66.5,33.3,29.94,NNW,331,0.0,0.0,29,0.00,,,0.00,WeatherCatV1.21B27,2013-10-19 07:23:00,
2013-10-19 00:28:00,66.3,33.9,29.94,NNW,331,0.0,1.0,30,0.00,,,0.00,WeatherCatV1.21B27,2013-10-19 07:28:00,
2013-10-19 00:33:00,66.1,33.8,29.95,NNW,331,0.0,2.0,30,0.00,,,0.00,WeatherCatV1.21B27,2013-10-19 07:33:00,
2013-10-19 00:38:00,65.7,33.4,29.95,NNW,331,2.0,2.0,30,0.00,,,0.00,WeatherCatV1.21B27,2013-10-19 07:38:00,
2013-10-19 00:43:00,65.5,33.2,29.95,NNW,331,1.0,2.0,30,0.00,,,0.00,WeatherCatV1.21B27,2013-10-19 07:43:00,
2013-10-19 00:48:00,65.4,33.2,29.94,NNW,331,0.0,0.0,30,0.00,,,0.00,WeatherCatV1.21B27,2013-10-19 07:48:00,
2013-10-19 00:53:00,65.3,33.1,29.94,NNW,331,0.0,0.0,30,0.00,,,0.00,WeatherCatV1.21B27,2013-10-19 07:53:00,
2013-10-19 00:58:00,65.2,33.0,29.94,NNW,331,0.0,0.0,30,0.00,,,0.00,WeatherCatV1.21B27,2013-10-19 07:58:00,
2013-10-19 01:03:00,65.2,33.0,29.94,NNW,331,0.0,1.0,30,0.00,,,0.00,WeatherCatV1.21B27,2013-10-19 08:03:00,
2013-10-19 01:08:00,65.4,32.3,29.94,NNW,331,0.0,0.0,29,0.00,,,0.00,WeatherCatV1.21B27,2013-10-19 08:08:00,
2013-10-19 01:13:00,65.6,31.6,29.94,NNW,331,0.0,1.0,28,0.00,,,0.00,WeatherCatV1.21B27,2013-10-19 08:13:00,
2013-10-19 01:18:00,65.7,31.7,29.94,NNW,331,0.0,0.0,28,0.00,,,0.00,WeatherCatV1.21B27,2013-10-19 08:18:00,
2013-10-19 01:23:00,65.9,31.9,29.94,NNW,331,0.0,0.0,28,0.00,,,0.00,WeatherCatV1.21B27,2013-10-19 08:23:00,
2013-10-19 01:28:00,66.1,32.0,29.94,NNW,331,0.0,0.0,28,0.00,,,0.00,WeatherCatV1.21B27,2013-10-19 08:28:00,
2013-10-19 01:33:00,66.2,32.1,29.94,NNW,331,0.0,0.0,28,0.00,,,0.00,WeatherCatV1.21B27,2013-10-19 08:33:00,
2013-10-19 01:38:00,66.2,32.1,29.94,NNW,331,0.0,0.0,28,0.00,,,0.00,WeatherCatV1.21B27,2013-10-19 08:38:00,
2013-10-19 01:43:00,66.0,32.0,29.94,NNW,331,0.0,0.0,28,0.00,,,0.00,WeatherCatV1.21B27,2013-10-19 08:43:00,
2013-10-19 01:48:00,65.9,31.9,29.94,NNW,331,0.0,0.0,28,0.00,,,0.00,WeatherCatV1.21B27,2013-10-19 08:48:00,
2013-10-19 01:53:00,65.8,31.8,29.94,NNW,331,0.0,0.0,28,0.00,,,0.00,WeatherCatV1.21B27,2013-10-19 08:53:00,
2013-10-19 01:58:00,65.7,31.7,29.94,NNW,331,0.0,1.0,28,0.00,,,0.00,WeatherCatV1.21B27,2013-10-19 08:58:00,
2013-10-19 02:03:00,65.5,31.5,29.94,NNW,331,0.0,1.0,28,0.00,,,0.00,WeatherCatV1.21B27,2013-10-19 09:03:00,
2013-10-19 02:08:00,65.4,31.4,29.94,NNW,331,0.0,0.0,28,0.00,,,0.00,WeatherCatV1.21B27,2013-10-19 09:08:00,
2013-10-19 02:13:00,65.3,31.4,29.94,NNW,331,0.0,0.0,28,0.00,,,0.00,WeatherCatV1.21B27,2013-10-19 09:13:00,
2013-10-19 02:18:00,65.2,31.3,29.94,NNW,331,0.0,0.0,28,0.00,,,0.00,WeatherCatV1.21B27,2013-10-19 09:18:00,
2013-10-19 02:23:00,65.2,31.3,29.94,NNW,331,0.0,0.0,28,0.00,,,0.00,WeatherCatV1.21B27,2013-10-19 09:23:00,
2013-10-19 02:28:00,65.4,31.4,29.94,NNW,331,0.0,0.0,28,0.00,,,0.00,WeatherCatV1.21B27,2013-10-19 09:28:00,
2013-10-19 02:33:00,65.5,31.5,29.94,NNW,331,0.0,0.0,28,0.00,,,0.00,WeatherCatV1.21B27,2013-10-19 09:33:00,
2013-10-19 02:38:00,65.7,31.7,29.94,NNW,331,0.0,0.0,28,0.00,,,0.00,WeatherCatV1.21B27,2013-10-19 09:38:00,
2013-10-19 02:43:00,65.7,31.7,29.94,NNW,331,0.0,0.0,28,0.00,,,0.00,WeatherCatV1.21B27,2013-10-19 09:43:00,
2013-10-19 02:48:00,65.8,31.8,29.94,NNW,331,0.0,0.0,28,0.00,,,0.00,WeatherCatV1.21B27,2013-10-19 09:48:00,
2013-10-19 02:53:00,65.8,31.8,29.94,NNW,331,0.0,1.0,28,0.00,,,0.00,WeatherCatV1.21B27,2013-10-19 09:53:00,
2013-10-19 02:58:00,65.8,30.9,29.94,NNW,331,0.0,0.0,27,0.00,,,0.00,WeatherCatV1.21B27,2013-10-19 09:58:00,
2013-10-19 03:03:00,65.8,30.9,29.94,NNW,331,0.0,0.0,27,0.00,,,0.00,WeatherCatV1.21B27,2013-10-19 10:03:00,
2013-10-19 03:08:00,65.9,31.0,29.94,NNW,331,0.0,0.0,27,0.00,,,0.00,WeatherCatV1.21B27,2013-10-19 10:08:00,
2013-10-19 03:13:00,66.0,31.1,29.94,NNW,331,0.0,0.0,27,0.00,,,0.00,WeatherCatV1.21B27,2013-10-19 10:13:00,
2013-10-19 03:18:00,66.1,31.1,29.94,NNW,331,0.0,0.0,27,0.00,,,0.00,WeatherCatV1.21B27,2013-10-19 10:18:00,
2013-10-19 03:23:00,66.1,31.1,29.94,NNW,331,0.0,0.0,27,0.00,,,0.00,WeatherCatV1.21B27,2013-10-19 10:23:00,
2013-10-19 03:28:00,66.2,30.3,29.94,NNW,331,0.0,0.0,26,0.00,,,0.00,WeatherCatV1.21B27,2013-10-19 10:28:00,
2013-10-19 03:33:00,66.2,30.3,29.94,NNW,331,1.0,1.0,26,0.00,,,0.00,WeatherCatV1.21B27,2013-10-19 10:33:00,
2013-10-19 03:38:00,66.1,30.2,29.94,NNW,331,0.0,1.0,26,0.00,,,0.00,WeatherCatV1.21B27,2013-10-19 10:38:00,
2013-10-19 03:43:00,66.0,30.1,29.94,NNW,331,0.0,1.0,26,0.00,,,0.00,WeatherCatV1.21B27,2013-10-19 10:43:00,
2013-10-19 03:48:00,65.8,30.9,29.94,NNW,331,1.0,2.0,27,0.00,,,0.00,WeatherCatV1.21B27,2013-10-19 10:48:00,
2013-10-19 03:53:00,65.7,30.8,29.94,NNW,331,0.0,0.0,27,0.00,,,0.00,WeatherCatV1.21B27,2013-10-19 10:53:00,
2013-10-19 03:58:00,65.5,30.6,29.94,NNW,331,0.0,0.0,27,0.00,,,0.00,WeatherCatV1.21B27,2013-10-19 10:58:00,
2013-10-19 04:03:00,65.3,30.5,29.94,NNW,331,0.0,0.0,27,0.00,,,0.00,WeatherCatV1.21B27,2013-10-19 11:03:00,
2013-10-19 04:08:00,65.1,30.3,29.94,NNW,331,0.0,0.0,27,0.00,,,0.00,WeatherCatV1.21B27,2013-10-19 11:08:00,
2013-10-19 04:13:00,65.0,30.2,29.94,NNW,331,0.0,0.0,27,0.00,,,0.00,WeatherCatV1.21B27,2013-10-19 11:13:00,
2013-10-19 04:18:00,65.0,30.2,29.94,NNW,331,0.0,0.0,27,0.00,,,0.00,WeatherCatV1.21B27,2013-10-19 11:18:00,
2013-10-19 04:23:00,65.0,30.2,29.94,NNW,331,0.0,0.0,27,0.00,,,0.00,WeatherCatV1.21B27,2013-10-19 11:23:00,
2013-10-19 04:28:00,64.9,29.2,29.94,NNW,331,0.0,0.0,26,0.00,,,0.00,WeatherCatV1.21B27,2013-10-19 11:28:00,
2013-10-19 04:33:00,65.0,29.3,29.94,NNW,331,0.0,0.0,26,0.00,,,0.00,WeatherCatV1.21B27,2013-10-19 11:33:00,
2013-10-19 04:38:00,65.1,29.4,29.94,NNW,331,0.0,0.0,26,0.00,,,0.00,WeatherCatV1.21B27,2013-10-19 11:38:00,
2013-10-19 04:43:00,65.1,29.4,29.94,NNW,331,0.0,0.0,26,0.00,,,0.00,WeatherCatV1.21B27,2013-10-19 11:43:00,
2013-10-19 04:48:00,65.1,29.4,29.94,NNW,331,0.0,0.0,26,0.00,,,0.00,WeatherCatV1.21B27,2013-10-19 11:48:00,
2013-10-19 04:53:00,65.1,29.4,29.94,NNW,331,0.0,1.0,26,0.00,,,0.00,WeatherCatV1.21B27,2013-10-19 11:53:00,
2013-10-19 04:58:00,64.9,29.2,29.94,NNW,331,0.0,0.0,26,0.00,,,0.00,WeatherCatV1.21B27,2013-10-19 11:58:00,
2013-10-19 05:03:00,64.7,29.0,29.94,NNW,331,0.0,0.0,26,0.00,,,0.00,WeatherCatV1.21B27,2013-10-19 12:03:00,
2013-10-19 05:08:00,64.6,28.9,29.94,NNW,331,0.0,0.0,26,0.00,,,0.00,WeatherCatV1.21B27,2013-10-19 12:08:00,
2013-10-19 05:13:00,64.4,28.8,29.94,NNW,331,0.0,0.0,26,0.00,,,0.00,WeatherCatV1.21B27,2013-10-19 12:13:00,
2013-10-19 05:18:00,64.3,28.7,29.94,NNW,331,0.0,0.0,26,0.00,,,0.00,WeatherCatV1.21B27,2013-10-19 12:18:00,
2013-10-19 05:23:00,64.2,28.6,29.94,NNW,331,0.0,0.0,26,0.00,,,0.00,WeatherCatV1.21B27,2013-10-19 12:23:00,
2013-10-19 05:28:00,64.1,28.5,29.94,NNW,331,0.0,0.0,26,0.00,,,0.00,WeatherCatV1.21B27,2013-10-19 12:28:00,
2013-10-19 05:33:00,64.1,28.5,29.94,NNW,331,0.0,0.0,26,0.00,,,0.00,WeatherCatV1.21B27,2013-10-19 12:33:00,
2013-10-19 05:38:00,64.0,28.4,29.94,NNW,331,0.0,0.0,26,0.00,,,0.00,WeatherCatV1.21B27,2013-10-19 12:38:00,
2013-10-19 05:43:00,64.0,28.4,29.94,NNW,331,0.0,1.0,26,0.00,,,0.00,WeatherCatV1.21B27,2013-10-19 12:43:00,
2013-10-19 05:48:00,64.0,28.4,29.94,NNW,331,0.0,0.0,26,0.00,,,0.00,WeatherCatV1.21B27,2013-10-19 12:48:00,
2013-10-19 05:53:00,64.0,28.4,29.94,NNW,331,0.0,0.0,26,0.00,,,0.00,WeatherCatV1.21B27,2013-10-19 12:53:00,
2013-10-19 05:58:00,64.1,28.5,29.94,NNW,331,0.0,0.0,26,0.00,,,0.00,WeatherCatV1.21B27,2013-10-19 12:58:00,
2013-10-19 06:03:00,64.2,28.6,29.94,NNW,331,1.0,1.0,26,0.00,,,0.00,WeatherCatV1.21B27,2013-10-19 13:03:00,
2013-10-19 06:08:00,64.3,27.7,29.94,NNW,331,0.0,1.0,25,0.00,,,0.00,WeatherCatV1.21B27,2013-10-19 13:08:00,
2013-10-19 06:13:00,64.4,27.8,29.94,NNW,331,0.0,1.0,25,0.00,,,0.00,WeatherCatV1.21B27,2013-10-19 13:13:00,
2013-10-19 06:18:00,64.5,27.9,29.94,NNW,331,0.0,1.0,25,0.00,,,0.00,WeatherCatV1.21B27,2013-10-19 13:18:00,
2013-10-19 06:23:00,64.6,28.9,29.94,NNW,331,0.0,1.0,26,0.00,,,0.00,WeatherCatV1.21B27,2013-10-19 13:23:00,
2013-10-19 06:28:00,64.7,29.0,29.94,NNW,331,0.0,0.0,26,0.00,,,0.00,WeatherCatV1.21B27,2013-10-19 13:28:00,
2013-10-19 06:33:00,64.8,28.1,29.95,NNW,331,0.0,0.0,25,0.00,,,0.00,WeatherCatV1.21B27,2013-10-19 13:33:00,
2013-10-19 06:38:00,64.9,28.2,29.95,NNW,331,0.0,0.0,25,0.00,,,0.00,WeatherCatV1.21B27,2013-10-19 13:38:00,
2013-10-19 06:43:00,65.1,28.4,29.95,NNW,331,0.0,0.0,25,0.00,,,0.00,WeatherCatV1.21B27,2013-10-19 13:43:00,
2013-10-19 06:48:00,65.4,28.7,29.95,NNW,331,0.0,0.0,25,0.00,,,0.00,WeatherCatV1.21B27,2013-10-19 13:48:00,
2013-10-19 06:53:00,65.6,28.8,29.95,NNW,331,0.0,0.0,25,0.00,,,0.00,WeatherCatV1.21B27,2013-10-19 13:53:00,
2013-10-19 06:58:00,65.7,28.9,29.95,NNW,331,0.0,0.0,25,0.00,,,0.00,WeatherCatV1.21B27,2013-10-19 13:58:00,
2013-10-19 07:03:00,65.7,28.9,29.95,NNW,331,0.0,0.0,25,0.00,,,0.00,WeatherCatV1.21B27,2013-10-19 14:03:00,
2013-10-19 07:08:00,65.7,28.9,29.95,NNW,331,0.0,0.0,25,0.00,,,0.00,WeatherCatV1.21B27,2013-10-19 14:08:00,
2013-10-19 07:13:00,65.6,28.8,29.95,NNW,331,0.0,0.0,25,0.00,,,0.00,WeatherCatV1.21B27,2013-10-19 14:13:00,
2013-10-19 07:18:00,65.6,28.8,29.95,NNW,331,0.0,0.0,25,0.00,,,0.00,WeatherCatV1.21B27,2013-10-19 14:18:00,
2013-10-19 07:23:00,65.6,28.8,29.95,NNW,331,0.0,1.0,25,0.00,,,0.00,WeatherCatV1.21B27,2013-10-19 14:23:00,
2013-10-19 07:28:00,65.5,28.8,29.95,NNW,331,0.0,1.0,25,0.00,,,0.00,WeatherCatV1.21B27,2013-10-19 14:28:00,
2013-10-19 07:33:00,65.6,28.8,29.95,NNW,331,0.0,1.0,25,0.00,,,0.00,WeatherCatV1.21B27,2013-10-19 14:33:00,
2013-10-19 07:38:00,65.5,28.8,29.95,NNW,331,0.0,1.0,25,0.00,,,0.00,WeatherCatV1.21B27,2013-10-19 14:38:00,
2013-10-19 07:43:00,65.5,28.8,29.95,NNW,331,1.0,1.0,25,0.00,,,0.00,WeatherCatV1.21B27,2013-10-19 14:43:00,
2013-10-19 07:48:00,65.6,29.8,29.95,NNW,331,0.0,0.0,26,0.00,,,0.00,WeatherCatV1.21B27,2013-10-19 14:48:00,
2013-10-19 07:53:00,65.6,29.8,29.95,NNW,331,0.0,1.0,26,0.00,,,0.00,WeatherCatV1.21B27,2013-10-19 14:53:00,
2013-10-19 07:58:00,65.8,30.0,29.95,NNW,331,0.0,0.0,26,0.00,,,0.00,WeatherCatV1.21B27,2013-10-19 14:58:00,
2013-10-19 08:03:00,66.0,29.2,29.96,NNW,331,0.0,0.0,25,0.00,,,0.00,WeatherCatV1.21B27,2013-10-19 15:03:00,
2013-10-19 08:08:00,66.4,29.5,29.96,NNW,331,0.0,0.0,25,0.00,,,0.00,WeatherCatV1.21B27,2013-10-19 15:08:00,
2013-10-19 08:13:00,66.8,29.9,29.96,NNW,331,0.0,0.0,25,0.00,,,0.00,WeatherCatV1.21B27,2013-10-19 15:13:00,
2013-10-19 08:18:00,67.0,30.0,29.96,NNW,331,0.0,0.0,25,0.00,,,0.00,WeatherCatV1.21B27,2013-10-19 15:18:00,
2013-10-19 08:23:00,67.2,30.2,29.96,NNW,331,0.0,0.0,25,0.00,,,0.00,WeatherCatV1.21B27,2013-10-19 15:23:00,
2013-10-19 08:28:00,67.3,30.3,29.96,NNW,331,0.0,0.0,25,0.00,,,0.00,WeatherCatV1.21B27,2013-10-19 15:28:00,
2013-10-19 08:33:00,67.6,29.5,29.96,NNW,331,0.0,1.0,24,0.00,,,0.00,WeatherCatV1.21B27,2013-10-19 15:33:00,
2013-10-19 08:38:00,68.1,31.0,29.96,NNW,331,0.0,1.0,25,0.00,,,0.00,WeatherCatV1.21B27,2013-10-19 15:38:00,
2013-10-19 08:43:00,68.7,30.5,29.96,NNW,331,0.0,1.0,24,0.00,,,0.00,WeatherCatV1.21B27,2013-10-19 15:43:00,
2013-10-19 08:48:00,69.2,30.9,29.97,NNW,331,0.0,1.0,24,0.00,,,0.00,WeatherCatV1.21B27,2013-10-19 15:48:00,
2013-10-19 08:53:00,69.7,30.2,29.97,NNW,330,0.0,1.0,23,0.00,,,0.00,WeatherCatV1.21B27,2013-10-19 15:53:00,
2013-10-19 08:58:00,70.0,31.5,29.97,NNW,330,0.0,0.0,24,0.00,,,0.00,WeatherCatV1.21B27,2013-10-19 15:58:00,
2013-10-19 09:03:00,70.3,31.8,29.97,NNW,330,0.0,1.0,24,0.00,,,0.00,WeatherCatV1.21B27,2013-10-19 16:03:00,
2013-10-19 09:08:00,70.7,33.2,29.97,NNW,327,1.0,1.0,25,0.00,,,0.00,WeatherCatV1.21B27,2013-10-19 16:08:00,
2013-10-19 09:13:00,71.1,32.5,29.97,NNW,327,0.0,0.0,24,0.00,,,0.00,WeatherCatV1.21B27,2013-10-19 16:13:00,
2013-10-19 09:18:00,71.2,33.6,29.97,NNW,327,0.0,0.0,25,0.00,,,0.00,WeatherCatV1.21B27,2013-10-19 16:18:00,
2013-10-19 09:23:00,71.5,34.8,29.97,NNW,327,0.0,0.0,26,0.00,,,0.00,WeatherCatV1.21B27,2013-10-19 16:23:00,
2013-10-19 09:28:00,72.3,35.5,29.97,NNW,328,0.0,1.0,26,0.00,,,0.00,WeatherCatV1.21B27,2013-10-19 16:28:00,
2013-10-19 09:33:00,73.1,34.2,29.97,NNW,330,0.0,0.0,24,0.00,,,0.00,WeatherCatV1.21B27,2013-10-19 16:33:00,
2013-10-19 09:38:00,74.0,35.9,29.97,NNW,330,0.0,0.0,25,0.00,,,0.00,WeatherCatV1.21B27,2013-10-19 16:38:00,
2013-10-19 09:43:00,75.2,35.9,29.97,NW,321,0.0,1.0,24,0.00,,,0.00,WeatherCatV1.21B27,2013-10-19 16:43:00,
2013-10-19 09:48:00,76.4,36.9,29.97,SSE,168,0.0,1.0,24,0.00,,,0.00,WeatherCatV1.21B27,2013-10-19 16:48:00,
2013-10-19 09:53:00,77.1,36.4,29.97,SSE,167,1.0,2.0,23,0.00,,,0.00,WeatherCatV1.21B27,2013-10-19 16:53:00,
2013-10-19 09:58:00,77.7,35.8,29.97,SSE,167,0.0,1.0,22,0.00,,,0.00,WeatherCatV1.21B27,2013-10-19 16:58:00,
2013-10-19 10:03:00,77.9,37.1,29.98,SSE,167,1.0,2.0,23,0.00,,,0.00,WeatherCatV1.21B27,2013-10-19 17:03:00,
2013-10-19 10:08:00,78.3,36.3,29.98,SSE,151,1.0,3.0,22,0.00,,,0.00,WeatherCatV1.21B27,2013-10-19 17:08:00,
2013-10-19 10:13:00,78.4,37.5,29.98,SSE,151,0.0,2.0,23,0.00,,,0.00,WeatherCatV1.21B27,2013-10-19 17:13:00,
2013-10-19 10:18:00,78.5,36.5,29.98,SSE,152,2.0,2.0,22,0.00,,,0.00,WeatherCatV1.21B27,2013-10-19 17:18:00,
2013-10-19 10:23:00,78.6,35.4,29.98,South,169,0.0,1.0,21,0.00,,,0.00,WeatherCatV1.21B27,2013-10-19 17:23:00,
2013-10-19 10:28:00,78.7,36.6,29.98,SSE,165,0.0,1.0,22,0.00,,,0.00,WeatherCatV1.21B27,2013-10-19 17:28:00,
2013-10-19 10:33:00,78.5,35.3,29.98,SSE,165,1.0,1.0,21,0.00,,,0.00,WeatherCatV1.21B27,2013-10-19 17:33:00,
2013-10-19 10:38:00,78.3,35.1,29.98,SSE,161,0.0,2.0,21,0.00,,,0.00,WeatherCatV1.21B27,2013-10-19 17:38:00,
2013-10-19 10:43:00,78.4,37.5,29.98,SSE,161,0.0,0.0,23,0.00,,,0.00,WeatherCatV1.21B27,2013-10-19 17:43:00,
2013-10-19 10:48:00,78.5,36.5,29.97,SSE,148,0.0,0.0,22,0.00,,,0.00,WeatherCatV1.21B27,2013-10-19 17:48:00,
2013-10-19 10:53:00,79.2,38.2,29.97,South,171,0.0,0.0,23,0.00,,,0.00,WeatherCatV1.21B27,2013-10-19 17:53:00,
2013-10-19 10:58:00,79.8,36.4,29.97,SSE,166,0.0,1.0,21,0.00,,,0.00,WeatherCatV1.21B27,2013-10-19 17:58:00,
2013-10-19 11:03:00,80.5,34.4,29.97,SSE,168,1.0,3.0,19,0.00,,,0.00,WeatherCatV1.21B27,2013-10-19 18:03:00,
2013-10-19 11:08:00,80.9,36.0,29.97,SSE,168,1.0,2.0,20,0.00,,,0.00,WeatherCatV1.21B27,2013-10-19 18:08:00,
2013-10-19 11:13:00,81.5,37.8,29.97,SSE,168,0.0,2.0,21,0.00,,,0.00,WeatherCatV1.21B27,2013-10-19 18:13:00,
2013-10-19 11:18:00,82.2,38.4,29.97,SSE,168,0.0,1.0,21,0.00,,,0.00,WeatherCatV1.21B27,2013-10-19 18:18:00,
2013-10-19 11:23:00,82.3,38.4,29.97,South,169,2.0,3.0,21,0.00,,,0.00,WeatherCatV1.21B27,2013-10-19 18:23:00,
2013-10-19 11:28:00,82.3,39.6,29.97,SSE,151,0.0,1.0,22,0.00,,,0.00,WeatherCatV1.21B27,2013-10-19 18:28:00,
2013-10-19 11:33:00,82.5,37.4,29.97,NNE,25,0.0,0.0,20,0.00,,,0.00,WeatherCatV1.21B27,2013-10-19 18:33:00,
2013-10-19 11:38:00,82.7,37.5,29.97,ESE,111,0.0,2.0,20,0.00,,,0.00,WeatherCatV1.21B27,2013-10-19 18:38:00,
2013-10-19 11:43:00,83.0,39.0,29.97,ESE,102,0.0,1.0,21,0.00,,,0.00,WeatherCatV1.21B27,2013-10-19 18:43:00,
2013-10-19 11:48:00,83.6,38.3,29.97,ESE,102,0.0,0.0,20,0.00,,,0.00,WeatherCatV1.21B27,2013-10-19 18:48:00,
2013-10-19 11:53:00,84.2,38.8,29.97,NNW,345,1.0,3.0,20,0.00,,,0.00,WeatherCatV1.21B27,2013-10-19 18:53:00,
2013-10-19 11:58:00,84.4,37.6,29.97,SE,146,0.0,1.0,19,0.00,,,0.00,WeatherCatV1.21B27,2013-10-19 18:58:00,
2013-10-19 12:03:00,84.5,39.0,29.97,SE,146,0.0,1.0,20,0.00,,,0.00,WeatherCatV1.21B27,2013-10-19 19:03:00,
2013-10-19 12:08:00,84.1,37.4,29.97,South,171,0.0,3.0,19,0.00,,,0.00,WeatherCatV1.21B27,2013-10-19 19:08:00,
2013-10-19 12:13:00,83.6,38.3,29.97,SSE,147,0.0,1.0,20,0.00,,,0.00,WeatherCatV1.21B27,2013-10-19 19:13:00,
2013-10-19 12:18:00,83.4,38.1,29.97,SE,138,0.0,1.0,20,0.00,,,0.00,WeatherCatV1.21B27,2013-10-19 19:18:00,
2013-10-19 12:23:00,83.5,39.4,29.97,East,82,1.0,2.0,21,0.00,,,0.00,WeatherCatV1.21B27,2013-10-19 19:23:00,
2013-10-19 12:28:00,83.6,38.3,29.97,SE,125,0.0,1.0,20,0.00,,,0.00,WeatherCatV1.21B27,2013-10-19 19:28:00,
2013-10-19 12:33:00,83.6,39.5,29.97,NNW,342,0.0,2.0,21,0.00,,,0.00,WeatherCatV1.21B27,2013-10-19 19:33:00,
2013-10-19 12:38:00,83.9,41.0,29.97,ESE,123,2.0,2.0,22,0.00,,,0.00,WeatherCatV1.21B27,2013-10-19 19:38:00,
2013-10-19 12:43:00,83.8,40.9,29.97,SSE,150,0.0,1.0,22,0.00,,,0.00,WeatherCatV1.21B27,2013-10-19 19:43:00,
2013-10-19 12:48:00,83.7,41.9,29.97,NE,36,0.0,0.0,23,0.00,,,0.00,WeatherCatV1.21B27,2013-10-19 19:48:00,
2013-10-19 12:53:00,84.1,41.1,29.97,SE,144,0.0,2.0,22,0.00,,,0.00,WeatherCatV1.21B27,2013-10-19 19:53:00,
2013-10-19 12:58:00,84.0,42.2,29.97,SE,133,1.0,3.0,23,0.00,,,0.00,WeatherCatV1.21B27,2013-10-19 19:58:00,
2013-10-19 13:03:00,83.5,42.9,29.96,SE,124,0.0,2.0,24,0.00,,,0.00,WeatherCatV1.21B27,2013-10-19 20:03:00,
2013-10-19 13:08:00,83.1,41.4,29.96,ESE,121,0.0,2.0,23,0.00,,,0.00,WeatherCatV1.21B27,2013-10-19 20:08:00,
2013-10-19 13:13:00,82.4,40.9,29.96,SE,131,0.0,3.0,23,0.00,,,0.00,WeatherCatV1.21B27,2013-10-19 20:13:00,
2013-10-19 13:18:00,81.9,41.5,29.96,South,179,0.0,1.0,24,0.00,,,0.00,WeatherCatV1.21B27,2013-10-19 20:18:00,
2013-10-19 13:23:00,81.7,40.3,29.96,SE,137,0.0,0.0,23,0.00,,,0.00,WeatherCatV1.21B27,2013-10-19 20:23:00,
2013-10-19 13:28:00,81.6,41.3,29.96,NE,54,0.0,1.0,24,0.00,,,0.00,WeatherCatV1.21B27,2013-10-19 20:28:00,
2013-10-19 13:33:00,81.7,39.1,29.95,ESE,104,0.0,2.0,22,0.00,,,0.00,WeatherCatV1.21B27,2013-10-19 20:33:00,
2013-10-19 13:38:00,82.1,39.5,29.95,SSE,156,0.0,2.0,22,0.00,,,0.00,WeatherCatV1.21B27,2013-10-19 20:38:00,
2013-10-19 13:43:00,82.5,38.6,29.95,SSE,154,0.0,1.0,21,0.00,,,0.00,WeatherCatV1.21B27,2013-10-19 20:43:00,
2013-10-19 13:48:00,82.8,37.6,29.95,SSE,154,1.0,1.0,20,0.00,,,0.00,WeatherCatV1.21B27,2013-10-19 20:48:00,
2013-10-19 13:53:00,83.0,37.8,29.95,SSE,148,1.0,2.0,20,0.00,,,0.00,WeatherCatV1.21B27,2013-10-19 20:53:00,
2013-10-19 13:58:00,83.0,39.0,29.95,SSE,158,1.0,1.0,21,0.00,,,0.00,WeatherCatV1.21B27,2013-10-19 20:58:00,
2013-10-19 14:03:00,82.9,38.9,29.94,East,96,1.0,1.0,21,0.00,,,0.00,WeatherCatV1.21B27,2013-10-19 21:03:00,
2013-10-19 14:08:00,82.7,38.8,29.94,SSE,154,0.0,1.0,21,0.00,,,0.00,WeatherCatV1.21B27,2013-10-19 21:08:00,
2013-10-19 14:13:00,82.7,37.5,29.94,SSE,158,0.0,0.0,20,0.00,,,0.00,WeatherCatV1.21B27,2013-10-19 21:13:00,
2013-10-19 14:18:00,82.5,38.6,29.94,SE,127,0.0,1.0,21,0.00,,,0.00,WeatherCatV1.21B27,2013-10-19 21:18:00,
2013-10-19 14:23:00,82.3,38.4,29.94,ESE,107,2.0,2.0,21,0.00,,,0.00,WeatherCatV1.21B27,2013-10-19 21:23:00,
2013-10-19 14:28:00,82.1,38.3,29.94,East,99,1.0,1.0,21,0.00,,,0.00,WeatherCatV1.21B27,2013-10-19 21:28:00,
2013-10-19 14:33:00,81.8,39.2,29.94,ESE,106,0.0,0.0,22,0.00,,,0.00,WeatherCatV1.21B27,2013-10-19 21:33:00,
2013-10-19 14:38:00,81.8,39.2,29.94,East,97,1.0,1.0,22,0.00,,,0.00,WeatherCatV1.21B27,2013-10-19 21:38:00,
2013-10-19 14:43:00,81.6,39.0,29.94,NNW,330,0.0,3.0,22,0.00,,,0.00,WeatherCatV1.21B27,2013-10-19 21:43:00,
2013-10-19 14:48:00,81.2,37.5,29.94,East,100,1.0,1.0,21,0.00,,,0.00,WeatherCatV1.21B27,2013-10-19 21:48:00,
2013-10-19 14:53:00,80.7,37.1,29.94,East,98,0.0,0.0,21,0.00,,,0.00,WeatherCatV1.21B27,2013-10-19 21:53:00,
2013-10-19 14:58:00,80.3,38.0,29.94,SE,134,1.0,2.0,22,0.00,,,0.00,WeatherCatV1.21B27,2013-10-19 21:58:00,
2013-10-19 15:03:00,80.0,37.7,29.94,SE,136,1.0,1.0,22,0.00,,,0.00,WeatherCatV1.21B27,2013-10-19 22:03:00,
2013-10-19 15:08:00,79.8,37.5,29.94,SE,125,0.0,1.0,22,0.00,,,0.00,WeatherCatV1.21B27,2013-10-19 22:08:00,
2013-10-19 15:13:00,79.6,37.4,29.94,ESE,115,0.0,1.0,22,0.00,,,0.00,WeatherCatV1.21B27,2013-10-19 22:13:00,
2013-10-19 15:18:00,79.4,37.2,29.94,SSE,147,0.0,1.0,22,0.00,,,0.00,WeatherCatV1.21B27,2013-10-19 22:18:00,
2013-10-19 15:23:00,79.3,37.1,29.94,SSE,149,1.0,2.0,22,0.00,,,0.00,WeatherCatV1.21B27,2013-10-19 22:23:00,
2013-10-19 15:28:00,79.1,37.0,29.94,NE,37,0.0,0.0,22,0.00,,,0.00,WeatherCatV1.21B27,2013-10-19 22:28:00,
2013-10-19 15:33:00,78.9,37.9,29.94,SSE,157,0.0,1.0,23,0.00,,,0.00,WeatherCatV1.21B27,2013-10-19 22:33:00,
2013-10-19 15:38:00,78.7,36.6,29.94,North,6,0.0,1.0,22,0.00,,,0.00,WeatherCatV1.21B27,2013-10-19 22:38:00,
2013-10-19 15:43:00,78.5,37.6,29.94,ESE,103,0.0,1.0,23,0.00,,,0.00,WeatherCatV1.21B27,2013-10-19 22:43:00,
2013-10-19 15:48:00,78.2,37.3,29.94,SE,135,1.0,2.0,23,0.00,,,0.00,WeatherCatV1.21B27,2013-10-19 22:48:00,
2013-10-19 15:53:00,78.0,37.2,29.94,SE,131,0.0,0.0,23,0.00,,,0.00,WeatherCatV1.21B27,2013-10-19 22:53:00,
2013-10-19 15:58:00,77.8,37.0,29.94,South,177,1.0,2.0,23,0.00,,,0.00,WeatherCatV1.21B27,2013-10-19 22:58:00,
2013-10-19 16:03:00,77.7,36.9,29.94,SE,142,0.0,2.0,23,0.00,,,0.00,WeatherCatV1.21B27,2013-10-19 23:03:00,
2013-10-19 16:08:00,77.7,36.9,29.94,SE,142,0.0,0.0,23,0.00,,,0.00,WeatherCatV1.21B27,2013-10-19 23:08:00,
2013-10-19 16:13:00,77.7,36.9,29.94,SE,142,0.0,0.0,23,0.00,,,0.00,WeatherCatV1.21B27,2013-10-19 23:13:00,
2013-10-19 16:18:00,77.6,35.7,29.94,SE,131,0.0,1.0,22,0.00,,,0.00,WeatherCatV1.21B27,2013-10-19 23:18:00,
2013-10-19 16:23:00,77.3,36.6,29.94,SE,133,0.0,0.0,23,0.00,,,0.00,WeatherCatV1.21B27,2013-10-19 23:23:00,
2013-10-19 16:28:00,77.1,35.3,29.94,SE,135,1.0,1.0,22,0.00,,,0.00,WeatherCatV1.21B27,2013-10-19 23:28:00,
2013-10-19 16:33:00,76.6,33.7,29.94,SE,136,0.0,1.0,21,0.00,,,0.00,WeatherCatV1.21B27,2013-10-19 23:33:00,
2013-10-19 16:38:00,76.2,33.4,29.94,SE,137,0.0,2.0,21,0.00,,,0.00,WeatherCatV1.21B27,2013-10-19 23:38:00,
2013-10-19 16:43:00,75.9,34.3,29.94,SE,137,0.0,0.0,22,0.00,,,0.00,WeatherCatV1.21B27,2013-10-19 23:43:00,
2013-10-19 16:48:00,75.7,34.2,29.94,SE,136,1.0,2.0,22,0.00,,,0.00,WeatherCatV1.21B27,2013-10-19 23:48:00,
2013-10-19 16:53:00,75.3,33.8,29.94,SE,135,0.0,1.0,22,0.00,,,0.00,WeatherCatV1.21B27,2013-10-19 23:53:00,
2013-10-19 16:58:00,75.2,34.8,29.94,SE,135,0.0,0.0,23,0.00,,,0.00,WeatherCatV1.21B27,2013-10-19 23:58:00,
2013-10-19 17:03:00,75.1,34.8,29.94,SE,135,0.0,0.0,23,0.00,,,0.00,WeatherCatV1.21B27,2013-10-20 00:03:00,
2013-10-19 17:08:00,75.0,35.8,29.94,SE,135,0.0,0.0,24,0.00,,,0.00,WeatherCatV1.21B27,2013-10-20 00:08:00,
2013-10-19 17:13:00,74.8,36.6,29.94,SE,135,0.0,0.0,25,0.00,,,0.00,WeatherCatV1.21B27,2013-10-20 00:13:00,
2013-10-19 17:18:00,74.5,36.4,29.95,SE,131,0.0,0.0,25,0.00,,,0.00,WeatherCatV1.21B27,2013-10-20 00:18:00,
2013-10-19 17:23:00,74.2,36.1,29.95,East,90,0.0,0.0,25,0.00,,,0.00,WeatherCatV1.21B27,2013-10-20 00:23:00,
2013-10-19 17:28:00,73.9,36.8,29.95,East,92,0.0,0.0,26,0.00,,,0.00,WeatherCatV1.21B27,2013-10-20 00:28:00,
2013-10-19 17:33:00,73.8,36.8,29.94,East,92,0.0,0.0,26,0.00,,,0.00,WeatherCatV1.21B27,2013-10-20 00:33:00,
2013-10-19 17:38:00,73.5,36.5,29.94,East,92,0.0,0.0,26,0.00,,,0.00,WeatherCatV1.21B27,2013-10-20 00:38:00,
2013-10-19 17:43:00,73.3,37.3,29.94,East,92,0.0,0.0,27,0.00,,,0.00,WeatherCatV1.21B27,2013-10-20 00:43:00,
2013-10-19 17:48:00,73.0,37.0,29.94,East,92,0.0,0.0,27,0.00,,,0.00,WeatherCatV1.21B27,2013-10-20 00:48:00,
2013-10-19 17:53:00,72.7,35.8,29.94,East,92,0.0,0.0,26,0.00,,,0.00,WeatherCatV1.21B27,2013-10-20 00:53:00,
2013-10-19 17:58:00,72.3,34.5,29.94,East,86,0.0,2.0,25,0.00,,,0.00,WeatherCatV1.21B27,2013-10-20 00:58:00,
2013-10-19 18:03:00,71.8,35.1,29.94,NNW,331,1.0,3.0,26,0.00,,,0.00,WeatherCatV1.21B27,2013-10-20 01:03:00,
2013-10-19 18:08:00,71.6,35.8,29.94,NNW,331,1.0,2.0,27,0.00,,,0.00,WeatherCatV1.21B27,2013-10-20 01:08:00,
2013-10-19 18:13:00,71.3,35.6,29.94,NNW,332,1.0,2.0,27,0.00,,,0.00,WeatherCatV1.21B27,2013-10-20 01:13:00,
2013-10-19 18:18:00,71.1,35.4,29.94,NNW,332,0.0,1.0,27,0.00,,,0.00,WeatherCatV1.21B27,2013-10-20 01:18:00,
2013-10-19 18:23:00,70.8,36.1,29.94,NNW,332,1.0,1.0,28,0.00,,,0.00,WeatherCatV1.21B27,2013-10-20 01:23:00,
2013-10-19 18:28:00,70.6,38.5,29.94,NNW,338,2.0,4.0,31,0.00,,,0.00,WeatherCatV1.21B27,2013-10-20 01:28:00,
2013-10-19 18:33:00,70.3,38.2,29.94,NNW,329,4.0,4.0,31,0.00,,,0.00,WeatherCatV1.21B27,2013-10-20 01:33:00,
2013-10-19 18:38:00,70.0,38.8,29.94,NNW,337,4.0,4.0,32,0.00,,,0.00,WeatherCatV1.21B27,2013-10-20 01:38:00,
2013-10-19 18:43:00,69.7,38.5,29.94,NNW,335,2.0,5.0,32,0.00,,,0.00,WeatherCatV1.21B27,2013-10-20 01:43:00,
2013-10-19 18:48:00,69.5,38.3,29.94,NNW,334,3.0,4.0,32,0.00,,,0.00,WeatherCatV1.21B27,2013-10-20 01:48:00,
2013-10-19 18:53:00,69.4,39.0,29.94,NNW,334,4.0,4.0,33,0.00,,,0.00,WeatherCatV1.21B27,2013-10-20 01:53:00,
2013-10-19 18:58:00,69.3,39.7,29.94,NNW,332,4.0,4.0,34,0.00,,,0.00,WeatherCatV1.21B27,2013-10-20 01:58:00,
2013-10-19 19:03:00,69.0,40.2,29.94,NNW,336,4.0,4.0,35,0.00,,,0.00,WeatherCatV1.21B27,2013-10-20 02:03:00,
2013-10-19 19:08:00,68.8,40.0,29.94,NNW,340,3.0,4.0,35,0.00,,,0.00,WeatherCatV1.21B27,2013-10-20 02:08:00,
2013-10-19 19:13:00,68.8,40.0,29.94,NNW,329,3.0,5.0,35,0.00,,,0.00,WeatherCatV1.21B27,2013-10-20 02:13:00,
2013-10-19 19:18:00,68.8,40.0,29.94,NNW,329,3.0,4.0,35,0.00,,,0.00,WeatherCatV1.21B27,2013-10-20 02:18:00,
2013-10-19 19:23:00,68.7,39.9,29.94,NNW,333,1.0,3.0,35,0.00,,,0.00,WeatherCatV1.21B27,2013-10-20 02:23:00,
2013-10-19 19:28:00,68.6,39.1,29.94,NNW,331,1.0,3.0,34,0.00,,,0.00,WeatherCatV1.21B27,2013-10-20 02:28:00,
2013-10-19 19:33:00,68.5,39.0,29.94,NNW,334,2.0,3.0,34,0.00,,,0.00,WeatherCatV1.21B27,2013-10-20 02:33:00,
2013-10-19 19:38:00,68.5,39.0,29.94,NNW,331,2.0,3.0,34,0.00,,,0.00,WeatherCatV1.21B27,2013-10-20 02:38:00,
2013-10-19 19:43:00,68.5,39.0,29.94,NNW,329,2.0,3.0,34,0.00,,,0.00,WeatherCatV1.21B27,2013-10-20 02:43:00,
2013-10-19 19:48:00,68.5,38.2,29.94,NNW,328,2.0,3.0,33,0.00,,,0.00,WeatherCatV1.21B27,2013-10-20 02:48:00,
2013-10-19 19:53:00,68.6,38.3,29.94,NNW,335,1.0,3.0,33,0.00,,,0.00,WeatherCatV1.21B27,2013-10-20 02:53:00,
2013-10-19 19:58:00,68.8,37.7,29.94,NNW,329,2.0,3.0,32,0.00,,,0.00,WeatherCatV1.21B27,2013-10-20 02:58:00,
2013-10-19 20:03:00,68.9,37.8,29.94,NNW,336,2.0,3.0,32,0.00,,,0.00,WeatherCatV1.21B27,2013-10-20 03:03:00,
2013-10-19 20:08:00,68.8,38.5,29.94,NNW,333,3.0,4.0,33,0.00,,,0.00,WeatherCatV1.21B27,2013-10-20 03:08:00,
2013-10-19 20:13:00,69.0,37.1,29.94,NNW,328,5.0,5.0,31,0.00,,,0.00,WeatherCatV1.21B27,2013-10-20 03:13:00,
2013-10-19 20:18:00,69.4,34.9,29.94,NW,323,4.0,4.0,28,0.00,,,0.00,WeatherCatV1.21B27,2013-10-20 03:18:00,
2013-10-19 20:23:00,69.9,35.3,29.94,NNW,327,4.0,4.0,28,0.00,,,0.00,WeatherCatV1.21B27,2013-10-20 03:23:00,
2013-10-19 20:28:00,70.1,34.6,29.94,NNW,329,3.0,3.0,27,0.00,,,0.00,WeatherCatV1.21B27,2013-10-20 03:28:00,
2013-10-19 20:33:00,69.9,35.3,29.94,NNW,328,2.0,3.0,28,0.00,,,0.00,WeatherCatV1.21B27,2013-10-20 03:33:00,
2013-10-19 20:38:00,69.5,35.0,29.94,NNW,335,2.0,3.0,28,0.00,,,0.00,WeatherCatV1.21B27,2013-10-20 03:38:00,
2013-10-19 20:43:00,69.3,34.8,29.94,NNW,331,3.0,4.0,28,0.00,,,0.00,WeatherCatV1.21B27,2013-10-20 03:43:00,
2013-10-19 20:48:00,69.2,35.6,29.94,NNW,332,2.0,3.0,29,0.00,,,0.00,WeatherCatV1.21B27,2013-10-20 03:48:00,
2013-10-19 20:54:00,69.0,35.4,29.94,NNW,329,1.0,4.0,29,0.00,,,0.00,WeatherCatV1.21B27,2013-10-20 03:54:00,
2013-10-19 20:59:00,69.0,35.4,29.94,NNW,330,2.0,3.0,29,0.00,,,0.00,WeatherCatV1.21B27,2013-10-20 03:59:00,
2013-10-19 21:01:00,69.0,35.4,29.95,NNW,335,1.0,2.0,29,0.00,,,0.00,WeatherCatV1.21B27,2013-10-20 04:01:00,
2013-10-19 21:02:00,69.0,35.4,29.95,NNW,335,0.0,2.0,29,0.00,,,0.00,WeatherCatV1.21B27,2013-10-20 04:02:00,
2013-10-19 21:07:00,69.0,35.4,29.95,NNW,335,0.0,1.0,29,0.00,,,0.00,WeatherCatV1.21B27,2013-10-20 04:07:00,
2013-10-19 21:12:00,69.0,35.4,29.95,NNW,335,0.0,0.0,29,0.00,,,0.00,WeatherCatV1.21B27,2013-10-20 04:12:00,
2013-10-19 21:17:00,68.8,35.2,29.95,NNW,335,0.0,0.0,29,0.00,,,0.00,WeatherCatV1.21B27,2013-10-20 04:17:00,
2013-10-19 21:22:00,68.7,36.0,29.95,NNW,335,0.0,0.0,30,0.00,,,0.00,WeatherCatV1.21B27,2013-10-20 04:22:00,
2013-10-19 21:27:00,68.5,35.8,29.95,NNW,335,0.0,0.0,30,0.00,,,0.00,WeatherCatV1.21B27,2013-10-20 04:27:00,
2013-10-19 21:32:00,68.5,35.0,29.95,NNW,335,0.0,2.0,29,0.00,,,0.00,WeatherCatV1.21B27,2013-10-20 04:32:00,
2013-10-19 21:37:00,68.3,35.7,29.95,NNW,335,0.0,1.0,30,0.00,,,0.00,WeatherCatV1.21B27,2013-10-20 04:37:00,
2013-10-19 21:42:00,68.2,35.6,29.95,NNW,339,0.0,3.0,30,0.00,,,0.00,WeatherCatV1.21B27,2013-10-20 04:42:00,
2013-10-19 21:47:00,68.2,35.6,29.95,NNW,341,0.0,2.0,30,0.00,,,0.00,WeatherCatV1.21B27,2013-10-20 04:47:00,
2013-10-19 21:52:00,68.3,35.7,29.95,NNW,341,1.0,1.0,30,0.00,,,0.00,WeatherCatV1.21B27,2013-10-20 04:52:00,
2013-10-19 21:57:00,68.3,35.7,29.95,NNW,341,1.0,2.0,30,0.00,,,0.00,WeatherCatV1.21B27,2013-10-20 04:57:00,
2013-10-19 22:02:00,68.2,35.6,29.95,NNW,341,0.0,0.0,30,0.00,,,0.00,WeatherCatV1.21B27,2013-10-20 05:02:00,
2013-10-19 22:07:00,68.1,35.5,29.95,NNW,341,1.0,1.0,30,0.00,,,0.00,WeatherCatV1.21B27,2013-10-20 05:07:00,
2013-10-19 22:12:00,67.9,34.5,29.95,NNW,333,3.0,3.0,29,0.00,,,0.00,WeatherCatV1.21B27,2013-10-20 05:12:00,
2013-10-19 22:17:00,67.9,34.5,29.95,NNW,333,0.0,0.0,29,0.00,,,0.00,WeatherCatV1.21B27,2013-10-20 05:17:00,
2013-10-19 22:22:00,67.9,34.5,29.95,NNW,333,0.0,0.0,29,0.00,,,0.00,WeatherCatV1.21B27,2013-10-20 05:22:00,
2013-10-19 22:27:00,67.8,35.2,29.95,NNW,333,0.0,0.0,30,0.00,,,0.00,WeatherCatV1.21B27,2013-10-20 05:27:00,
2013-10-19 22:32:00,67.7,35.1,29.96,NNW,333,0.0,0.0,30,0.00,,,0.00,WeatherCatV1.21B27,2013-10-20 05:32:00,
2013-10-19 22:37:00,67.6,35.1,29.96,NNW,333,0.0,0.0,30,0.00,,,0.00,WeatherCatV1.21B27,2013-10-20 05:37:00,
2013-10-19 22:42:00,67.5,35.0,29.96,NNW,333,0.0,0.0,30,0.00,,,0.00,WeatherCatV1.21B27,2013-10-20 05:42:00,
2013-10-19 22:47:00,67.4,34.9,29.96,NNW,333,0.0,0.0,30,0.00,,,0.00,WeatherCatV1.21B27,2013-10-20 05:47:00,
2013-10-19 22:52:00,67.3,34.8,29.96,NNW,333,0.0,2.0,30,0.00,,,0.00,WeatherCatV1.21B27,2013-10-20 05:52:00,
2013-10-19 22:57:00,67.2,34.7,29.96,NNW,333,0.0,0.0,30,0.00,,,0.00,WeatherCatV1.21B27,2013-10-20 05:57:00,
2013-10-19 23:02:00,67.2,34.7,29.96,North,359,2.0,2.0,30,0.00,,,0.00,WeatherCatV1.21B27,2013-10-20 06:02:00,
2013-10-19 23:07:00,67.6,35.1,29.96,NNW,336,1.0,2.0,30,0.00,,,0.00,WeatherCatV1.21B27,2013-10-20 06:07:00,
2013-10-19 23:12:00,68.0,34.5,29.96,NNW,335,2.0,2.0,29,0.00,,,0.00,WeatherCatV1.21B27,2013-10-20 06:12:00,
2013-10-19 23:17:00,68.3,34.8,29.95,NNW,335,0.0,1.0,29,0.00,,,0.00,WeatherCatV1.21B27,2013-10-20 06:17:00,
2013-10-19 23:22:00,68.3,34.8,29.95,NNW,330,1.0,3.0,29,0.00,,,0.00,WeatherCatV1.21B27,2013-10-20 06:22:00,
2013-10-19 23:27:00,68.3,34.8,29.95,NNW,328,2.0,2.0,29,0.00,,,0.00,WeatherCatV1.21B27,2013-10-20 06:27:00,
2013-10-19 23:32:00,68.2,34.7,29.95,NNW,341,0.0,0.0,29,0.00,,,0.00,WeatherCatV1.21B27,2013-10-20 06:32:00,
2013-10-19 23:37:00,68.1,34.6,29.95,NNW,341,0.0,0.0,29,0.00,,,0.00,WeatherCatV1.21B27,2013-10-20 06:37:00,
2013-10-19 23:42:00,68.0,34.5,29.95,NNW,341,0.0,0.0,29,0.00,,,0.00,WeatherCatV1.21B27,2013-10-20 06:42:00,
2013-10-19 23:47:00,67.8,35.2,29.95,NNW,341,0.0,0.0,30,0.00,,,0.00,WeatherCatV1.21B27,2013-10-20 06:47:00,
2013-10-19 23:52:00,67.6,35.1,29.95,NNW,341,0.0,0.0,30,0.00,,,0.00,WeatherCatV1.21B27,2013-10-20 06:52:00,
2013-10-19 23:57:00,67.4,34.9,29.95,NNW,341,0.0,0.0,30,0.00,,,0.00,WeatherCatV1.21B27,2013-10-20 06:57:00,